{"data":{"norad_id":56910,"epoch":"2026-09-20T17:00:38.891808Z","epoch_age_seconds":99550,"freshness":"FRESH","line1":"1 56910U 23083AL  26263.70878347  .00000088  00000+0  12720-4 0  9991","line2":"2 56910  43.0025  49.3282 0001035 265.5637  94.5096 15.27577918181610","mean_motion":15.27577918,"eccentricity":0.0001035,"inclination_deg":43.0025,"raan_deg":49.3282,"arg_perigee_deg":265.5637,"mean_anomaly_deg":94.5096,"bstar":1.272e-5,"rev_number":18161,"period_min":94.266877193756,"perigee_km":482.34519689754,"apogee_km":483.76546370992,"semimajor_km":6861.1923303037,"source":"CELESTRAK","updated_at":"2026-09-21T09:00:33.526684Z"}}